Total_Precipitation_Accumulation
0.00 0.00 0.00 0.00 0.00 0.00 0.00 0.01 0.02 0.05 0.06 0.07 0.10 0.09 0.10 0.17 0.34 0.80 0.48 0.25 0.11 0.03 0.01 0.01 0.01 0.02 0.04 0.06 0.09 0.09 0.09 0.11 0.12 0.13 0.12 0.10 0.08 0.07 0.06 0.06 0.10 0.14 0.16 0.14 0.11 0.09 0.10 0.10 0.08
0.00 0.00 0.00 0.00 0.00 0.00 0.00 0.01 0.03 0.05 0.05 0.07 0.14 0.12 0.11 0.15 0.18 0.14 0.15 0.16 0.09 0.03 0.01 0.01 0.01 0.02 0.03 0.04 0.07 0.10 0.10 0.10 0.10 0.10 0.09 0.08 0.08 0.07 0.07 0.08 0.10 0.12 0.11 0.08 0.06 0.05 0.05 0.06 0.06
0.00 0.00 0.00 0.00 0.00 0.00 0.01 0.02 0.03 0.03 0.04 0.08 0.20 0.30 0.27 0.22 0.23 0.14 0.11 0.08 0.07 0.03 0.01 0.02 0.02 0.03 0.05 0.04 0.04 0.08 0.12 0.12 0.11 0.11 0.11 0.11 0.10 0.09 0.09 0.09 0.11 0.11 0.10 0.11 0.10 0.08 0.05 0.05 0.05
0.00 0.00 0.00 0.00 0.00 0.00 0.01 0.03 0.04 0.03 0.05 0.07 0.17 0.36 0.29 0.22 0.21 0.18 0.09 0.08 0.07 0.04 0.01 0.01 0.03 0.04 0.06 0.06 0.06 0.07 0.10 0.13 0.14 0.14 0.14 0.13 0.13 0.11 0.09 0.10 0.10 0.11 0.12 0.14 0.17 0.12 0.06 0.05 0.05
0.00 0.00 0.00 0.00 0.00 0.00 0.00 0.02 0.05 0.04 0.05 0.05 0.11 0.34 0.40 0.26 0.26 0.31 0.19 0.11 0.09 0.07 0.02 0.02 0.05 0.05 0.07 0.08 0.09 0.10 0.09 0.12 0.16 0.16 0.14 0.13 0.13 0.12 0.11 0.11 0.10 0.12 0.15 0.17 0.14 0.09 0.04 0.04 0.04
0.00 0.00 0.00 0.00 0.00 0.00 0.00 0.01 0.03 0.04 0.05 0.08 0.14 0.42 0.66 0.60 0.53 0.52 0.46 0.24 0.17 0.11 0.06 0.04 0.07 0.07 0.08 0.11 0.12 0.16 0.16 0.16 0.17 0.16 0.14 0.13 0.12 0.12 0.14 0.14 0.13 0.16 0.20 0.18 0.10 0.04 0.03 0.02 0.03
0.00 0.00 0.00 0.00 0.01 0.01 0.01 0.02 0.03 0.06 0.07 0.10 0.19 0.53 0.73 0.86 0.86 0.67 0.62 0.46 0.23 0.17 0.14 0.09 0.07 0.07 0.10 0.13 0.13 0.16 0.18 0.18 0.16 0.16 0.17 0.17 0.18 0.18 0.18 0.17 0.16 0.19 0.19 0.13 0.06 0.03 0.02 0.02 0.03
0.00 0.00 0.00 0.00 0.01 0.01 0.02 0.04 0.06 0.11 0.15 0.16 0.28 0.67 0.98 0.99 0.87 0.76 0.62 0.61 0.38 0.29 0.26 0.17 0.11 0.10 0.08 0.06 0.10 0.13 0.17 0.20 0.16 0.14 0.16 0.18 0.17 0.16 0.16 0.13 0.14 0.15 0.14 0.10 0.06 0.04 0.03 0.02 0.02
0.00 0.00 0.00 0.00 0.00 0.02 0.04 0.05 0.07 0.11 0.19 0.28 0.32 0.54 0.91 0.79 0.87 1.05 0.86 0.77 0.62 0.48 0.46 0.25 0.16 0.14 0.13 0.08 0.07 0.10 0.14 0.16 0.13 0.10 0.12 0.12 0.21 0.26 0.23 0.15 0.15 0.13 0.12 0.10 0.08 0.05 0.03 0.02 0.01
0.00 0.00 0.00 0.00 0.00 0.01 0.03 0.06 0.11 0.14 0.16 0.27 0.39 0.40 0.60 0.77 0.82 0.98 1.16 0.97 0.82 0.68 0.67 0.52 0.32 0.21 0.23 0.17 0.14 0.14 0.12 0.13 0.13 0.18 0.15 0.20 0.39 0.49 0.38 0.35 0.27 0.19 0.15 0.13 0.11 0.08 0.05 0.03 0.03
0.00 0.00 0.00 0.00 0.00 0.00 0.01 0.06 0.11 0.19 0.24 0.34 0.51 0.57 0.64 0.77 0.98 1.05 1.33 1.22 1.06 0.89 0.75 0.81 0.63 0.46 0.51 0.49 0.36 0.29 0.27 0.31 0.28 0.38 0.39 0.46 0.58 0.51 0.50 0.58 0.41 0.30 0.22 0.20 0.19 0.10 0.08 0.07 0.08
0.00 0.00 0.00 0.00 0.00 0.00 0.00 0.01 0.07 0.17 0.40 0.51 0.82 1.06 1.04 0.90 1.16 1.22 1.50 1.42 1.31 1.23 1.02 0.90 0.83 0.69 0.68 0.74 0.61 0.51 0.47 0.49 0.50 0.59 0.54 0.67 0.76 0.71 0.69 0.76 0.58 0.50 0.43 0.42 0.35 0.25 0.21 0.16 0.14
0.00 0.00 0.00 0.00 0.00 0.00 0.00 0.01 0.03 0.10 0.29 0.44 0.82 1.20 1.14 0.95 0.97 1.08 1.59 1.45 1.35 1.35 1.25 1.05 1.01 0.89 0.92 0.99 0.82 0.75 0.74 0.66 0.66 0.71 0.69 0.74 0.76 0.79 0.86 0.79 0.74 0.67 0.66 0.65 0.50 0.46 0.42 0.32 0.30
0.00 0.00 0.00 0.00 0.00 0.00 0.00 0.00 0.02 0.06 0.11 0.21 0.43 0.63 0.68 0.71 0.79 0.90 1.19 1.22 1.12 1.11 1.23 1.30 1.20 1.09 0.99 0.97 0.95 0.86 0.74 0.78 0.81 0.83 0.79 0.77 0.82 1.00 1.05 0.99 1.00 0.96 0.96 1.02 0.86 0.72 0.71 0.61 0.57
0.00 0.00 0.00 0.00 0.00 0.00 0.00 0.01 0.04 0.07 0.07 0.18 0.25 0.25 0.37 0.48 0.70 0.90 1.06 1.10 1.12 1.12 1.20 1.35 1.31 1.23 1.17 1.17 1.17 1.05 0.95 0.93 0.97 1.03 1.08 0.97 0.96 1.15 1.21 1.31 1.31 1.27 1.24 1.27 1.27 1.14 1.10 1.00 0.94
0.00 0.00 0.00 0.00 0.00 0.00 0.00 0.03 0.06 0.11 0.11 0.12 0.12 0.12 0.20 0.31 0.47 0.64 0.80 0.98 1.00 0.98 1.10 1.16 1.25 1.25 1.33 1.46 1.52 1.32 1.29 1.27 1.30 1.26 1.29 1.18 1.16 1.31 1.48 1.55 1.56 1.54 1.51 1.58 1.63 1.57 1.41 1.31 1.20
0.00 0.00 0.00 0.00 0.00 0.00 0.00 0.05 0.12 0.13 0.15 0.09 0.07 0.08 0.13 0.24 0.32 0.44 0.58 0.73 0.82 0.85 1.12 1.24 1.34 1.47 1.49 1.58 1.73 1.71 1.73 1.71 1.66 1.66 1.59 1.63 1.66 1.64 1.73 1.82 1.90 1.95 1.99 1.99 1.93 1.92 1.70 1.63 1.55
0.00 0.00 0.00 0.00 0.00 0.00 0.01 0.04 0.11 0.14 0.14 0.16 0.16 0.15 0.15 0.25 0.32 0.41 0.53 0.69 0.79 0.93 1.18 1.39 1.54 1.74 1.96 1.98 2.07 2.02 2.17 2.33 2.35 2.42 2.34 2.19 2.22 2.26 2.34 2.31 2.33 2.35 2.41 2.30 2.28 2.26 2.06 1.89 1.84
0.00 0.00 0.00 0.01 0.01 0.01 0.02 0.06 0.13 0.24 0.29 0.30 0.28 0.20 0.21 0.27 0.33 0.50 0.72 0.96 1.22 1.38 1.42 1.51 1.63 1.80 1.97 2.26 2.52 2.66 2.74 2.97 3.07 3.14 3.26 3.24 3.18 3.26 3.26 3.17 3.06 2.91 2.77 2.62 2.55 2.39 2.22 2.05 1.95
0.00 0.00 0.01 0.02 0.02 0.02 0.05 0.12 0.20 0.27 0.26 0.32 0.35 0.28 0.28 0.36 0.50 0.78 1.04 1.41 1.59 1.64 1.63 1.70 1.79 2.01 2.26 2.61 3.00 3.41 3.60 3.76 3.75 3.77 3.95 4.05 4.07 4.19 4.29 4.17 3.95 3.76 3.38 2.95 2.63 2.42 2.29 2.09 2.02
0.00 0.01 0.02 0.03 0.04 0.05 0.09 0.26 0.36 0.39 0.39 0.42 0.47 0.50 0.50 0.61 0.83 1.04 1.24 1.37 1.55 1.67 1.76 1.85 2.12 2.50 2.94 3.39 3.85 4.24 4.52 4.57 4.51 4.26 4.28 4.40 4.39 4.43 4.60 4.58 4.31 3.91 3.35 2.84 2.64 2.52 2.35 2.19 2.09
0.01 0.01 0.01 0.02 0.04 0.08 0.10 0.35 0.62 0.67 0.65 0.56 0.55 0.55 0.54 0.65 0.85 1.00 1.20 1.41 1.53 1.67 1.85 1.97 2.28 2.80 3.26 3.71 4.33 4.81 5.07 5.23 5.33 5.12 4.82 4.64 4.48 4.36 4.28 4.15 3.76 3.29 2.93 2.65 2.54 2.48 2.27 2.21 2.06
0.01 0.01 0.01 0.01 0.03 0.08 0.09 0.27 0.71 0.83 0.88 0.77 0.63 0.58 0.49 0.47 0.60 0.77 0.93 1.26 1.52 1.61 1.67 1.77 2.17 2.75 3.47 4.17 4.68 5.14 5.49 5.61 5.54 5.19 4.82 4.42 4.10 3.71 3.37 3.04 2.80 2.64 2.42 2.20 2.08 2.02 1.94 1.81 1.69
0.01 0.01 0.01 0.02 0.04 0.11 0.12 0.23 0.70 1.04 1.17 1.15 0.81 0.60 0.49 0.39 0.43 0.52 0.65 0.91 1.23 1.33 1.50 1.75 2.09 2.78 3.53 4.12 4.59 4.93 5.25 5.27 4.99 4.58 4.12 3.81 3.43 3.01 2.63 2.44 2.21 2.06 1.87 1.64 1.49 1.44 1.46 1.48 1.51
0.01 0.02 0.10 0.17 0.19 0.20 0.18 0.32 0.77 0.99 0.94 0.88 0.73 0.58 0.54 0.39 0.39 0.44 0.52 0.70 0.96 1.16 1.45 1.82 2.21 2.74 3.20 3.69 4.10 4.31 4.47 4.50 4.42 4.17 3.80 3.51 3.13 2.71 2.29 1.96 1.78 1.56 1.38 1.28 1.20 1.16 1.15 1.20 1.27
0.01 0.03 0.16 0.25 0.27 0.30 0.35 0.62 1.06 0.92 0.70 0.70 0.65 0.53 0.49 0.47 0.47 0.54 0.65 0.79 0.94 1.08 1.28 1.64 1.98 2.40 2.64 2.87 3.19 3.41 3.52 3.54 3.44 3.28 3.02 2.71 2.41 2.15 1.85 1.45 1.16 1.00 0.89 0.84 0.85 0.88 0.92 0.95 0.99
0.01 0.02 0.06 0.09 0.16 0.33 0.60 0.97 1.37 1.32 0.89 0.69 0.64 0.52 0.46 0.43 0.43 0.55 0.67 0.76 0.84 0.93 1.12 1.29 1.48 1.75 2.02 2.25 2.40 2.50 2.54 2.45 2.38 2.21 1.99 1.80 1.62 1.42 1.19 0.96 0.80 0.71 0.68 0.64 0.63 0.64 0.67 0.70 0.76
0.02 0.04 0.05 0.09 0.24 0.50 0.71 1.10 1.58 1.63 1.21 0.95 0.73 0.58 0.51 0.44 0.46 0.54 0.59 0.64 0.68 0.72 0.86 1.00 1.16 1.30 1.48 1.62 1.66 1.60 1.60 1.58 1.45 1.33 1.24 1.10 0.95 0.83 0.75 0.65 0.61 0.57 0.52 0.51 0.51 0.50 0.51 0.59 0.62
0.05 0.05 0.07 0.10 0.15 0.44 0.78 1.23 1.56 1.80 1.64 1.34 0.98 0.72 0.59 0.57 0.53 0.52 0.52 0.52 0.51 0.52 0.63 0.73 0.82 0.97 1.08 1.12 1.13 1.05 0.99 0.92 0.85 0.79 0.78 0.70 0.63 0.60 0.57 0.52 0.49 0.49 0.48 0.47 0.44 0.44 0.42 0.46 0.56
0.06 0.07 0.09 0.17 0.21 0.29 0.63 1.44 1.77 2.02 1.91 1.61 1.19 0.88 0.73 0.65 0.58 0.51 0.46 0.42 0.41 0.44 0.48 0.54 0.62 0.67 0.70 0.69 0.66 0.63 0.60 0.58 0.57 0.55 0.54 0.54 0.52 0.49 0.48 0.46 0.45 0.45 0.47 0.48 0.45 0.42 0.42 0.42 0.45